Regional Weather Roundup
Issued by NWS

Home | Current Version | Previous Version | Graphics & Text | Print | Product List | Glossary On
Versions: 1 2 3 4 5 6 7 8 9 10 11 12 13 14 15 16 17 18 19 20 21 22 23 24 25 26 27 28 29 30 31 32 33 34 35 36 37 38 39 40 41 42 43 44 45 46 47 48 49 50
000
ASUS43 KOAX 252310
RWRNE

WEATHER ROUNDUP FOR NEBRASKA
NATIONAL WEATHER SERVICE OMAHA NE
500 PM CST SAT FEB 25 2017

NOTES: SATELLITE DATA IS BEING USED TO AUGMENT CLOUD COVER ABOVE
       12000 FEET.
       "FAIR" INDICATES FEW OR NO CLOUDS BELOW 12,000 FEET WITH NO
       SIGNIFICANT WEATHER AND/OR OBSTRUCTIONS TO VISIBILITY.

  * THESE STATIONS DO NOT REPORT WEATHER SUCH AS RAIN...SNOW OR FOG.

NEZ001>004-019>022-054>056-260000-
NEBRASKA PANHANDLE

CITY           SKY/WX    TMP DP  RH WIND       PRES   REMARKS
SCOTTSBLUFF    CLOUDY    26  12  55 W8        29.81F WCI  18
ALLIANCE       CLOUDY    22  12  65 W12       29.80F WCI  10
CHADRON        SUNNY     26  14  60 SW8       29.80F WCI  18
KIMBALL        CLOUDY    30  17  59 W5        29.81S WCI  25
SIDNEY         CLOUDY    28  13  53 W12       29.83F WCI  18
$$

NEZ057>060-069>072-079>082-260000-
SOUTHWEST NEBRASKA

CITY           SKY/WX    TMP DP  RH WIND       PRES   REMARKS
NORTH PLATTE   CLOUDY    35  20  54 W12       29.88S WCI  27
IMPERIAL       SUNNY     35  13  40 NW17      29.88F WCI  25
LEXINGTON      CLOUDY    36  22  58 W8        29.90F WCI  29
MCCOOK         SUNNY     41  13  31 NW14      29.91F
OGALLALA       CLOUDY    33  16  48 NW15      29.86F WCI  23
$$

NEZ005>010-023>029-035>040-094-260000-
NORTH CENTRAL NEBRASKA

CITY           SKY/WX    TMP DP  RH WIND       PRES   REMARKS
VALENTINE      SUNNY     27  18  69 W8        29.81F WCI  19
AINSWORTH      SUNNY     28  21  76 W8        29.83F WCI  19
BROKEN BOW     SUNNY     32  21  64 W10       29.87F WCI  24
O`NEILL        SUNNY     30  20  66 SW9       29.85F WCI  22
ORD            SUNNY     32  18  56 W10       29.87F WCI  24
THEDFORD       CLOUDY    29  21  71 NW3       29.84F
$$

NEZ041-046>049-061>064-073>077-083>087-260000-
SOUTH CENTRAL NEBRASKA

CITY           SKY/WX    TMP DP  RH WIND       PRES   REMARKS
GRAND ISLAND   SUNNY     37  28  70 SW7       29.91F WCI  32
AURORA         SUNNY     36  25  63 S12G17    29.91F WCI  28
HASTINGS       MOSUNNY   42  24  49 W17       29.91F
HEBRON         MOSUNNY   42  22  45 S13       29.95F
HOLDREGE       SUNNY     39  19  43 W16       29.90F WCI  30
KEARNEY *      SUNNY     37  18  44 W15G21    29.91F WCI  28
YORK           PTSUNNY   34  27  75 S9        29.94F WCI  26
$$

NEZ011>018-030>034-042>045-260000-
NORTHEAST NEBRASKA

CITY           SKY/WX    TMP DP  RH WIND       PRES   REMARKS
NORFOLK        SUNNY     30  21  69 S14G23    29.90F WCI  19
ALBION         SUNNY     36  23  60 SW10      29.89F WCI  28
BLAIR          SUNNY     31  18  59 S10       29.97F WCI  22
FREMONT        SUNNY     32  20  63 S9        29.97F WCI  24
TEKAMAH        CLOUDY    30  20  66 S13       29.98F WCI  20
WAYNE          SUNNY     29  20  69 S13       29.92F WCI  19
$$

NEZ050>053-065>068-078-088>093-260000-
SOUTHEAST NEBRASKA

CITY           SKY/WX    TMP DP  RH WIND       PRES   REMARKS
LINCOLN        SUNNY     36  23  59 S14       29.99F WCI  27
OMAHA EPPLEY   MOSUNNY   34  15  46 S14       30.00F WCI  25
BEATRICE       CLOUDY    40  19  43 S12       29.99F WCI  32
FALLS CITY     CLOUDY    39  15  37 SW9       30.03F WCI  33
NEBRASKA CITY  SUNNY     36  17  46 SW10      30.01F WCI  28
PLATTSMOUTH    SUNNY     35  17  49 S12       30.00F WCI  26
$$

NEZ044-045-051>053-067-260000-
OMAHA AREA

CITY           SKY/WX    TMP DP  RH WIND       PRES   REMARKS
OMAHA EPPLEY   MOSUNNY   34  15  46 S14       30.00F WCI  25
BLAIR          SUNNY     31  18  59 S10       29.97F WCI  22
FREMONT        SUNNY     32  20  63 S9        29.97F WCI  24
MILLARD        SUNNY     36  20  54 S8        30.00F WCI  29
OFFUTT AFB     SUNNY     35  19  51 S14       30.00F WCI  25
PLATTSMOUTH    SUNNY     35  17  49 S12       30.00F WCI  26
WAHOO          FAIR      32  21  63 S9        29.97F WCI  24
$$



USA.gov is the U.S. government's official web portal to all federal, state and local government web resources and services.